Location: Hertford
(51.8000°N, 0.0667°W)
Time: 01:03:54
(UTC+00:00)

Spot 2 Rocket - Visible Passes

Search period start: 24 January 2021 00:00
Search period end: 03 February 2021 00:00
Orbit: 757 x 773 km, 98.5° (Epoch: 23 January)

Date Brightness Start Highest point End Pass type
(mag) Time Alt. Az. Time Alt. Az. Time Alt. Az.
30 Jan 6.0 19:58:25 10° N 19:58:25 10° N 19:58:31 10° N visible
31 Jan 6.3 21:01:08 10° NNW 21:01:08 10° NNW 21:01:09 10° NNW visible
01 Feb 6.0 20:23:40 12° N 20:23:40 12° N 20:24:01 10° N visible
02 Feb 5.8 19:46:13 11° N 19:46:13 11° N 19:46:35 10° N visible
